Location: Jacksonville
(30.3320°N, 81.6560°W)
Time: 22:36:45
(UTC-04:00)

Hubble Space Telescope - Visible Passes

Search period start: 07 June 2026 00:00
Search period end: 17 June 2026 00:00
Orbit: 473 x 475 km, 28.5° (Epoch: 7 June)

Date Brightness Start Highest point End Pass type
(mag) Time Alt. Az. Time Alt. Az. Time Alt. Az.
7 Jun 1.2 22:10:38 10° WSW 22:13:28 39° SSW 22:13:28 39° SSW visible
8 Jun 0.8 21:38:53 10° WSW 21:42:27 45° SSE 21:43:58 28° ESE visible
9 Jun 0.9 21:07:08 10° WSW 21:10:41 44° SSE 21:14:15 10° E visible
9 Jun 2.3 22:46:33 10° W 22:48:17 25° WSW 22:48:17 25° WSW visible
10 Jun 0.4 22:14:47 10° W 22:18:26 66° S 22:18:26 66° S visible
11 Jun 0.4 21:43:00 10° W 21:46:42 66° S 21:48:26 29° ESE visible
12 Jun 0.5 21:11:13 10° W 21:14:54 66° S 21:18:22 12° E visible
12 Jun 2.5 22:50:54 10° W 22:52:22 21° WSW 22:52:22 21° WSW visible
13 Jun 1.1 22:19:05 10° W 22:22:13 42° SW 22:22:13 42° SW visible
14 Jun 0.9 21:47:16 10° W 21:50:51 45° SSW 21:52:03 32° SE visible
15 Jun 1.0 21:15:27 10° W 21:19:01 45° SSW 21:21:50 15° ESE visible
16 Jun 2.7 22:24:00 10° WSW 22:25:37 16° SW 22:25:37 16° SW visible
